AE7RN Weather Reports


time (UTC)temp
F
wind
direction
speed
knots
gust
knots
rain 1hr
in
rain 24hr
in
rain mn
in
humidity
%
barometer
mb
20260504173138 56 325 2.6 12.2 0.00 0.00 0.00 42 1009.6
20260504170137 55 277 3.5 12.2 0.00 0.00 0.00 45 1009.5
20260504160137 53 325 5.2 13.0 0.00 0.00 0.00 48 1010.1
20260504150136 52 71 4.3 15.6 0.00 0.00 0.00 53 1010.3
20260504140135 45 182 3.5 6.1 0.00 0.00 0.00 60 1010.5
20260504130134 45 222 0.9 6.1 0.00 0.00 0.00 60 1011.5
20260504120133 47 165 0.0 10.4 0.00 0.00 0.00 55 1011.9
20260504110132 47 286 9.6 13.9 0.00 0.00 0.00 59 1010.7
20260504100131 43 292 2.6 12.2 0.00 0.00 0.00 63 1009.0
20260504090130 46 151 0.0 5.2 0.00 0.00 0.00 58 1008.2
20260504080128 46 189 7.0 8.7 0.00 0.00 0.00 60 1008.1
20260504070128 48 169 0.9 9.6 0.00 0.00 0.00 56 1008.5
20260504060127 50 113 2.6 7.0 0.00 0.00 0.00 52 1008.0
20260504050125 53 170 5.2 8.7 0.00 0.00 0.00 46 1008.0
20260504043125 53 152 0.9 5.2 0.00 0.00 0.00 45 1007.1
20260504040125 57 177 1.7 2.6 0.00 0.00 0.00 37 1007.5
20260504033124 60 290 1.7 1.7 0.00 0.00 0.00 34 1006.4
20260504030124 63 290 0.0 1.7 0.00 0.00 0.00 32 1006.3
20260504023123 66 290 0.0 6.1 0.00 0.00 0.00 31 1006.1
20260504020123 70 313 2.6 8.7 0.00 0.00 0.00 27 1006.5
20260504010121 74 323 2.6 10.4 0.00 0.00 0.00 18 1006.2
20260504003121 74 161 4.3 12.2 0.00 0.00 0.00 19 1005.9
20260504000150 74 238 1.7 12.2 0.00 0.00 0.00 17 1006.4
20260503230149 74 191 3.5 9.6 0.00 0.00 0.00 20 1007.3
20260503223119 74 262 5.2 13.0 0.00 0.00 0.00 20 1007.8
20260503220148 73 254 4.3 12.2 0.00 0.00 0.00 22 1008.3
20260503213147 73 22 4.3 11.3 0.00 0.00 0.00 22 1009.0
20260503203147 71 263 3.5 14.8 0.00 0.00 0.00 25 1010.4
20260503193146 70 163 3.5 10.4 0.00 0.00 0.00 29 1011.7
20260503190145 69 289 7.0 8.7 0.00 0.00 0.00 32 1011.8
20260503183145 68 79 1.7 6.1 0.00 0.00 0.00 34 1013.0
20260503180144 66 116 1.7 6.1 0.00 0.00 0.00 37 1013.0